IRIDIUM 33 DEB, 34159

Orbit data source: Space-Track

IRIDIUM 33 DEB, 34159 is space debris in LEO originally from a launch on Sun, 14 Sep 1997 UTC launched from the Tyuratam Missile And Space Complex (TTMTR). The debris from Iridium 33, an American commercial communications satellite, has been tracked extensively since its accidental collision with the defunct Russian satellite Cosmos 2251 in 2009. This event, occurring at high speed in low Earth orbit (LEO), generated thousands of pieces of space debris, significantly increasing the risk of further collisions. The Iridium 33 debris cloud has impacted space traffic management and orbital debris mitigation strategies, making it a subject of ongoing study in space situational awareness.

Loading next visibility...
Identifier
34159, 1997-051EN
Orbit
LEO
Country
Flag of USUS
Related business
Manufacturer
Unknown
Mission
Spacecraft
Bus & Motor
Unknown
Mass
Unknown
Launch date (UTC)
1997-09-14 (29 years ago)
Launch vehicle
Unknown
Launch site
Tyuratam Missile And Space Complex (TTMTR)
Object type
Payload
Rocket body
Debris
Shape & HBR
Unknown shape, 0.1 m
Radar Cross Section
Medium (>0.1 m² and <1 m²)

Expand to show TLE details & history
Last TLE update: 1 day ago

TLE from 1 day ago
0 IRIDIUM 33 DEB
1 34159U 97051EN  26208.24780530  .00001000  00000-0  31679-3 0  9991
2 34159  86.3530 311.6464 0025535 262.2367  97.5932 14.39016167912164
Epoch: 2026-07-27T05:56Z
TLE epoch observation values (Epoch: 2026-07-27T05:56:50.377Z)
Latitude
-0.00005°
Longitude
-82.49762°
Altitude
767.263 km
Speed
7.469 km/s
True Right ascension
20h 46m 35s
True Declination
0° 00' 00"
Sunlit
Object was in full shadow at epoch
Visualization orbit readout
Latitude
Unknown
Longitude
Unknown
Altitude
Unknown
Speed
Unknown
Apparent Right ascension
Unknown
Apparent Declination
Unknown
Sunlit
N/A
Visualization observer readout
Local Sidereal Time
22:03:37
Azimuth
Unknown
Elevation
Unknown
Doppler factor
Unknown
Orbital elements
Apogee altitude
776.933 km
Perigee altitude
740.486 km
Semi-major axis
7,136.846 km
Eccentricity
0.00255
Inclination
86.353°
RAAN
311.6464°
Arg. of periapsis
262.2367°
True anomaly
97.88312°
Mean anomaly
97.5932°
Eccentric anomaly
97.73817°
Mean motion
3.59984 °/min
Orbital period
100 mins
BSTAR
0.00031679
Loading maneuver chart data...
Computing Atmospheric mass density...

Documentation

Showing up to 5 results
|